Location: Observatoire
(46.1952°N, 5.3391°E)
Time: 14:02:32
(UTC+01:00)

Altair - Pass Details

Date: 21 February 2026
Orbit: 1502 x 1682 km, 47.2° (Epoch: 17 March)

Event Time Altitude Azimuth Distance (km) Brightness Sun altitude
Rises 06:48:48 0° 265° (W) 4,640 - -8.2°
Exits shadow 06:51:16 - 266° (W) 3,843 8.9 -7.8°
Reaches altitude 10° 06:51:48 10° 267° (W) 3,669 8.8 -7.7°
Maximum altitude 07:01:06 85° 356° (N) 1,552 7.6 -6.1°
Drops below altitude 10° 07:10:44 10° 86° (E) 3,791 11.2 -4.4°
Sets 07:13:52 0° 87° (E) 4,800 12.1 -3.9°
